Location: Ferchesar
(52.6477°N, 12.4298°E)
Time: 21:04:30
(UTC+02:00)

A-11 Canister half - Pass Details

Date: 05 March 2021
Orbit: 1525 x 1683 km, 47.3° (Epoch: 11 April)

Event Time Altitude Azimuth Distance (km) Brightness Sun altitude
Exits shadow 05:15:00 14° 234° (SW) 3,467 10.3 -14.8°
Maximum altitude 05:23:10 56° 162° (SSE) 1,813 9.4 -13.6°
Drops below altitude 10° 05:32:13 10° 88° (E) 3,711 12.5 -12.3°
Sets 05:35:17 0° 84° (E) 4,685 13.8 -11.8°
